Regional Weather Roundup
Issued by NWS

Home | Current Version | Previous Version | Graphics & Text | Print | Product List | Glossary On
Versions: 1 2 3 4 5 6 7 8 9 10 11 12 13 14 15 16 17 18 19 20 21 22 23 24 25 26 27 28 29 30 31 32 33 34 35 36 37 38 39 40 41 42 43 44 45 46 47 48 49 50
000
ASUS44 KMEG 020710
RWRTN
TENNESSEE HOURLY STATE WEATHER ROUNDUP
NATIONAL WEATHER SERVICE MEMPHIS TN
200 AM CDT THU APR 02 2015

TNZ002-004-019-021-049-052-054-088>092-020800-
WEST TENNESSEE

CITY           SKY/WX    TMP DP  RH WIND       PRES   REMARKS
MEMPHIS INTL   CLOUDY    71  58  63 S13G20    29.94F
NWS MEMPHIS      N/A     69 N/A N/A MISG        N/A
JACKSON        CLOUDY    66  59  78 S10       29.94F
DYERSBURG      CLOUDY    64  50  59 S7        29.92F
UNION CITY     PTCLDY    64  63  94 S7        29.90F
PARIS          CLEAR     63  55  77 S8        29.94F
HUNTINGDON     CLOUDY    63  57  80 S8        29.94F
LEXINGTON      CLEAR     64  57  77 S7        29.96F
SAVANNAH       CLEAR     64  61  88 S5        29.99S
$$

TNZ008-025-027-028-033-062-065-066-020800-
NORTH MIDDLE TENNESSEE

CITY           SKY/WX    TMP DP  RH WIND       PRES   REMARKS
NASHVILLE      CLOUDY    64  37  36 S5        29.98F
CLARKSVILLE    CLOUDY    62  40  44 SE7       29.95F
SMYRNA         CLOUDY    59  40  49 SE6       30.00S
COOKEVILLE     CLEAR     57  37  47 S3          N/A
CROSSVILLE     PTCLDY    57  25  29 CALM      30.07F
$$

TNZ061-075-076-078-094-096-097-020800-
SOUTH MIDDLE TENNESSEE

CITY           SKY/WX    TMP DP  RH WIND       PRES   REMARKS
FAYETTEVILLE   PTCLDY    63  50  63 S6        30.03S
TULLAHOMA      MOCLDY    59  43  55 CALM      30.04S
WINCHESTER     PTCLDY    61  48  63 SE3       30.04F
MCMINNVILLE    PTCLDY    61  43  51 S24       30.02F
COLUMBIA       MOCLDY    68  57  68 S8        29.98F
SHELBYVILLE    PTCLDY    64  48  55 SE5       30.02F
$$

TNZ017-018-042-046-047-020800-
NORTHEAST TENNESSEE

CITY           SKY/WX    TMP DP  RH WIND       PRES   REMARKS
TRI CITIES     PTCLDY    43  31  62 N3        30.13F
ELIZABETHTON   SUNNY     46  30  53 E3        30.15F
$$

TNZ012-013-036-069-073-074-020800-
CENTRAL EAST TENNESSEE

CITY           SKY/WX    TMP DP  RH WIND       PRES   REMARKS
KNOXVILLE      CLEAR     47  36  65 CALM      30.08F
OAK RIDGE      CLEAR     47  37  68 CALM      30.10F
GATLINBURG     SUNNY     43  34  70 CALM      30.09F
MORRISTOWN     SUNNY     48  30  49 E3        30.10F
$$

TNZ083-085-099-020800-
SOUTHEAST TENNESSEE

CITY           SKY/WX    TMP DP  RH WIND       PRES   REMARKS
CHATTANOOGA    PTCLDY    54  44  69 CALM      30.07F
$$

SKY/WX REPORTED AS FAIR MEANS FEW OR NO CLOUDS BELOW
12 THOUSAND FEET.



USA.gov is the U.S. government's official web portal to all federal, state and local government web resources and services.